Weather History for Bentonville, AR

Change the Weather History Date:

Thursday, January 23, 2014

  Actual Average Record
Temperature  
Mean Temperature 19 °F -  
Max Temperature 30 °F 47 °F 72 °F (1967)
Min Temperature 8 °F 23 °F -4 °F (1963)
Degree Days  
Heating Degree Days 46    
Moisture  
Dew Point -3 °F    
Average Humidity 45    
Maximum Humidity 67    
Minimum Humidity 30    
Precipitation  
Precipitation 0.00 in - - ()
Sea Level Pressure  
Sea Level Pressure 30.59 in    
Wind  
Wind Speed 14 mph (North)    
Max Wind Speed 22 mph    
Max Gust Speed 28 mph    
Visibility 10 miles    
Events      
Averages and records for this station are not official NWS values.
T = Trace of Precipitation, MM = Missing Value Source: NWS Daily Summary

Daily Weather History Graph

Daily Weather History Graph

Search for Another Location

Airport:

Trip Planner

Search our weather history database for the weather conditions in past years. The results will help you decide how hot, cold, wet, or windy it might be!

Date:

Astronomy

Jan. 23, 2014 Rise Set
Actual Time 7:24 AM CST 5:33 PM CST
Civil Twilight 6:56 AM CST 6:01 PM CST
Nautical Twilight 6:25 AM CST 6:32 PM CST
Astronomical Twilight 5:54 AM CST 7:03 PM CST
Moon No Moon Rise 11:13 AM CST (1/23)
Length of Visible Light 11h 04m
Length of Day
10h 09m
Waning Gibbous, 55% of the Moon is Illuminated
Jan 23
Waning Gibbous
Jan 23
Last Quarter
Jan 30
New
Feb 6
First Quarter
Feb 14
Full

Hourly Weather History & Observations

Time (CST) Temp. Windchill Dew Point Humidity Pressure Visibility Wind Dir Wind Speed Gust Speed Precip Events Conditions
12:15 AM 30.2 °F 18.9 °F 12.2 °F 47% 30.27 in 10.0 mi North 16.1 mph - N/A   Partly Cloudy
12:35 AM 30.2 °F 18.1 °F 10.4 °F 44% 30.27 in 10.0 mi North 18.4 mph 26.5 mph N/A   Clear
12:55 AM 28.4 °F 15.1 °F 12.2 °F 51% 30.28 in 10.0 mi North 20.7 mph 26.5 mph N/A   Clear
1:15 AM 26.6 °F 12.7 °F 10.4 °F 51% 30.30 in 10.0 mi North 20.7 mph 26.5 mph N/A   Clear
1:35 AM 26.6 °F 13.1 °F 12.2 °F 55% 30.31 in 10.0 mi North 19.6 mph - N/A   Clear
1:55 AM 24.8 °F 11.1 °F 12.2 °F 59% 30.33 in 10.0 mi North 18.4 mph 24.2 mph N/A   Clear
2:15 AM 24.8 °F 11.1 °F 10.4 °F 54% 30.34 in 10.0 mi North 18.4 mph 27.6 mph N/A   Clear
2:35 AM 24.8 °F 10.0 °F 10.4 °F 54% 30.35 in 10.0 mi NNE 21.9 mph 26.5 mph N/A   Partly Cloudy
2:55 AM 21.2 °F 6.8 °F 10.4 °F 63% 30.36 in 10.0 mi NNE 17.3 mph 24.2 mph N/A   Mostly Cloudy
3:15 AM 21.2 °F 8.9 °F 8.6 °F 58% 30.38 in 10.0 mi NNE 12.7 mph 23.0 mph N/A   Partly Cloudy
3:35 AM 19.4 °F 6.6 °F 3.2 °F 49% 30.39 in 10.0 mi NNE 12.7 mph - N/A   Clear
3:55 AM 19.4 °F 4.5 °F 3.2 °F 49% 30.41 in 10.0 mi North 17.3 mph 26.5 mph N/A   Clear
4:15 AM 17.6 °F 0.5 °F -7.6 °F 32% 30.41 in 10.0 mi North 21.9 mph 27.6 mph N/A   Clear
4:35 AM 17.6 °F 1.3 °F -9.4 °F 30% 30.42 in 10.0 mi NNE 19.6 mph 25.3 mph N/A   Clear
4:55 AM 15.8 °F -0.6 °F -9.4 °F 32% 30.44 in 10.0 mi NNE 18.4 mph 26.5 mph N/A   Clear
5:15 AM 15.8 °F 2.1 °F -7.6 °F 35% 30.46 in 10.0 mi NNE 12.7 mph - N/A   Clear
5:35 AM 15.8 °F -0.2 °F -5.8 °F 38% 30.48 in 10.0 mi NNE 17.3 mph 21.9 mph N/A   Clear
5:55 AM 15.8 °F -0.2 °F -5.8 °F 38% 30.49 in 10.0 mi NNE 17.3 mph 21.9 mph N/A   Clear
6:15 AM 15.8 °F 3.4 °F -4.0 °F 41% 30.50 in 10.0 mi NNE 10.4 mph - N/A   Scattered Clouds
6:35 AM 14.0 °F -0.8 °F -0.4 °F 53% 30.51 in 10.0 mi North 13.8 mph - N/A   Partly Cloudy
6:55 AM 12.2 °F -4.8 °F -2.2 °F 53% 30.52 in 10.0 mi North 17.3 mph 25.3 mph N/A   Clear
7:15 AM 12.2 °F -2.5 °F -2.2 °F 53% 30.54 in 10.0 mi NNE 12.7 mph - N/A   Clear
7:35 AM 12.2 °F -2.5 °F -4.0 °F 48% 30.55 in 10.0 mi NNE 12.7 mph - N/A   Clear
7:55 AM 12.2 °F -3.7 °F -5.8 °F 45% 30.56 in 10.0 mi NNE 15.0 mph - N/A   Clear
8:15 AM 10.4 °F -6.0 °F -5.8 °F 48% 30.57 in 10.0 mi NNE 15.0 mph - N/A   Clear
8:35 AM 12.2 °F -2.5 °F -5.8 °F 45% 30.59 in 10.0 mi NNE 12.7 mph 21.9 mph N/A   Clear
8:55 AM 12.2 °F -3.7 °F -4.0 °F 48% 30.60 in 10.0 mi NNE 15.0 mph 18.4 mph N/A   Clear
9:15 AM 12.2 °F -3.7 °F -5.8 °F 45% 30.62 in 10.0 mi NNE 15.0 mph 20.7 mph N/A   Partly Cloudy
9:35 AM 12.2 °F -3.1 °F -4.0 °F 48% 30.63 in 10.0 mi NNE 13.8 mph - N/A   Scattered Clouds
9:55 AM 12.2 °F -3.1 °F -5.8 °F 45% 30.65 in 10.0 mi NNE 13.8 mph - N/A   Partly Cloudy
10:15 AM 12.2 °F -3.1 °F -5.8 °F 45% 30.66 in 10.0 mi NNE 13.8 mph - N/A   Scattered Clouds
10:35 AM 14.0 °F -0.8 °F -5.8 °F 41% 30.67 in 10.0 mi NE 13.8 mph 21.9 mph N/A   Partly Cloudy
10:55 AM 12.2 °F -4.3 °F -5.8 °F 45% 30.68 in 10.0 mi North 16.1 mph 19.6 mph N/A   Clear
11:15 AM 14.0 °F 1.2 °F -5.8 °F 41% 30.69 in 10.0 mi NNE 10.4 mph - N/A   Mostly Cloudy
11:35 AM 14.0 °F -0.2 °F -5.8 °F 41% 30.68 in 10.0 mi NNE 12.7 mph - N/A   Mostly Cloudy
11:55 AM 15.8 °F 3.4 °F -5.8 °F 38% 30.68 in 10.0 mi NNE 10.4 mph - N/A   Partly Cloudy
12:15 PM 15.8 °F 2.1 °F -4.0 °F 41% 30.68 in 10.0 mi NNE 12.7 mph 19.6 mph N/A   Scattered Clouds
12:35 PM 15.8 °F 0.9 °F -5.8 °F 38% 30.68 in 10.0 mi North 15.0 mph 20.7 mph N/A   Partly Cloudy
12:55 PM 15.8 °F 0.9 °F -5.8 °F 38% 30.67 in 10.0 mi North 15.0 mph 18.4 mph N/A   Partly Cloudy
1:15 PM 17.6 °F 4.3 °F -7.6 °F 32% 30.67 in 10.0 mi North 12.7 mph - N/A   Partly Cloudy
1:35 PM 17.6 °F 4.3 °F -5.8 °F 35% 30.66 in 10.0 mi North 12.7 mph - N/A   Clear
1:55 PM 17.6 °F 2.2 °F -5.8 °F 35% 30.66 in 10.0 mi North 17.3 mph 21.9 mph N/A   Clear
2:15 PM 17.6 °F 3.7 °F -5.8 °F 35% 30.66 in 10.0 mi North 13.8 mph - N/A   Clear
2:35 PM 17.6 °F 4.3 °F -5.8 °F 35% 30.65 in 10.0 mi North 12.7 mph - N/A   Clear
2:55 PM 17.6 °F 5.7 °F -5.8 °F 35% 30.66 in 10.0 mi NNE 10.4 mph 16.1 mph N/A   Clear
3:15 PM 17.6 °F 4.3 °F -5.8 °F 35% 30.66 in 10.0 mi North 12.7 mph 17.3 mph N/A   Clear
3:35 PM 17.6 °F 4.3 °F -5.8 °F 35% 30.66 in 10.0 mi North 12.7 mph 16.1 mph N/A   Clear
3:55 PM 17.6 °F 4.3 °F -7.6 °F 32% 30.67 in 10.0 mi North 12.7 mph - N/A   Clear
4:15 PM 17.6 °F 3.7 °F -5.8 °F 35% 30.67 in 10.0 mi North 13.8 mph - N/A   Clear
4:35 PM 17.6 °F 6.4 °F -5.8 °F 35% 30.68 in 10.0 mi North 9.2 mph - N/A   Clear
4:55 PM 15.8 °F 3.4 °F -5.8 °F 38% 30.68 in 10.0 mi North 10.4 mph - N/A   Clear
5:15 PM 15.8 °F 6.1 °F -5.8 °F 38% 30.68 in 10.0 mi NNW 6.9 mph - N/A   Clear
5:35 PM 15.8 °F 4.2 °F -5.8 °F 38% 30.68 in 10.0 mi North 9.2 mph - N/A   Clear
5:55 PM 15.8 °F 6.1 °F -5.8 °F 38% 30.69 in 10.0 mi North 6.9 mph - N/A   Clear
6:15 PM 14.0 °F 6.5 °F -5.8 °F 41% 30.69 in 10.0 mi NNW 4.6 mph - N/A   Clear
6:35 PM 12.2 °F - -5.8 °F 45% 30.69 in 10.0 mi Calm Calm - N/A   Clear
6:55 PM 12.2 °F 6.1 °F -5.8 °F 45% 30.69 in 10.0 mi NNW 3.5 mph - N/A   Clear
7:15 PM 12.2 °F 6.1 °F -4.0 °F 48% 30.70 in 10.0 mi North 3.5 mph - N/A   Clear
7:35 PM 12.2 °F 4.3 °F -4.0 °F 48% 30.70 in 10.0 mi North 4.6 mph - N/A   Clear
7:55 PM 12.2 °F 2.9 °F -4.0 °F 48% 30.70 in 10.0 mi North 5.8 mph - N/A   Clear
8:15 PM 12.2 °F 4.3 °F -4.0 °F 48% 30.70 in 10.0 mi North 4.6 mph - N/A   Clear
8:35 PM 10.4 °F - -4.0 °F 52% 30.70 in 10.0 mi Calm Calm - N/A   Clear
8:55 PM 10.4 °F 4.0 °F -2.2 °F 57% 30.71 in 10.0 mi North 3.5 mph - N/A   Clear
9:15 PM 10.4 °F - -2.2 °F 57% 30.71 in 10.0 mi Calm Calm - N/A   Clear
9:35 PM 8.6 °F - -2.2 °F 62% 30.71 in 10.0 mi Calm Calm - N/A   Clear
9:55 PM 8.6 °F 2.0 °F -0.4 °F 67% 30.70 in 10.0 mi North 3.5 mph - N/A   Clear
10:15 PM 10.4 °F 4.0 °F -2.2 °F 57% 30.70 in 10.0 mi North 3.5 mph - N/A   Clear
10:35 PM 10.4 °F 4.0 °F -4.0 °F 52% 30.70 in 10.0 mi NNE 3.5 mph - N/A   Clear
10:55 PM 8.6 °F 0.1 °F -4.0 °F 57% 30.70 in 10.0 mi NNE 4.6 mph - N/A   Clear
11:15 PM 8.6 °F - -4.0 °F 57% 30.70 in 10.0 mi Calm Calm - N/A   Clear
11:35 PM 8.6 °F - -2.2 °F 62% 30.70 in 10.0 mi Calm Calm - N/A   Clear
11:55 PM 8.6 °F - -2.2 °F 62% 30.70 in 10.0 mi Calm Calm - N/A   Clear